Haines, AK

5:06 PM AKDT on October 22, 2017 (GMT -0800)
Haines

Weather History for PAHN - February, 2013

Change the Weather History Date:

Sunday, February 17, 2013

  Actual Average Record
Temperature  
Mean Temperature 34 °F -  
Max Temperature 35 °F 32 °F 47 °F (1993)
Min Temperature 32 °F 23 °F 6 °F (2001)
Degree Days  
Heating Degree Days 32    
Moisture  
Dew Point 30 °F    
Average Humidity 87    
Maximum Humidity 100    
Minimum Humidity 72    
Precipitation  
Precipitation 0.18 in - - ()
Sea Level Pressure  
Sea Level Pressure 29.82 in    
Wind  
Wind Speed 10 mph (East)    
Max Wind Speed 16 mph    
Max Gust Speed 28 mph    
Visibility 4 miles    
Events Snow    
Averages and records for this station are not official NWS values.
T = Trace of Precipitation, MM = Missing Value Source: NWS Daily Summary

Daily Weather History Graph

Daily Weather History Graph

Search for Another Location

Airport or City:

Trip Planner

Search our weather history database for the weather conditions in past years. The results will help you decide how hot, cold, wet, or windy it might be!

Date:

Astronomy

Feb. 17, 2013 Rise Set
Actual Time 7:30 AM AKST 5:02 PM AKST
Civil Twilight 6:48 AM AKST 5:44 PM AKST
Nautical Twilight 6:01 AM AKST 6:32 PM AKST
Astronomical Twilight 5:14 AM AKST 7:19 PM AKST
Moon 9:33 AM AKST (2/17) 1:57 AM AKST (2/17)
Length of Visible Light 10h 56m
Length of Day
9h 31m
Waxing Crescent, 50% of the Moon is Illuminated
Feb 17
Waxing Crescent
Feb 25
Full
Mar 4
Last Quarter
Mar 11
New
Mar 19
First Quarter

Hourly Weather History & Observations

Time (AKST) Temp. Windchill Dew Point Humidity Pressure Visibility Wind Dir Wind Speed Gust Speed Precip Events Conditions
12:54 AM 35.1 °F 26.4 °F 28.0 °F 76% 30.08 in 10.0 mi ESE 12.7 mph 20.7 mph N/A   Overcast
1:54 AM 35.1 °F 27.9 °F 28.0 °F 76% 30.08 in 10.0 mi ESE 9.2 mph - N/A   Mostly Cloudy
2:54 AM 35.1 °F 28.6 °F 28.0 °F 76% 30.06 in 10.0 mi ESE 8.1 mph 18.4 mph N/A   Partly Cloudy
3:54 AM 35.1 °F 27.4 °F 28.9 °F 78% 30.05 in 10.0 mi ESE 10.4 mph - N/A   Mostly Cloudy
4:54 AM 35.1 °F 28.6 °F 28.0 °F 76% 30.01 in 10.0 mi East 8.1 mph 16.1 mph N/A   Overcast
5:54 AM 35.1 °F 26.9 °F 27.0 °F 72% 30.00 in 10.0 mi ESE 11.5 mph 23.0 mph N/A   Overcast
6:54 AM 34.0 °F 25.0 °F 27.0 °F 75% 29.97 in 10.0 mi ESE 12.7 mph 21.9 mph N/A   Overcast
7:54 AM 34.0 °F 24.2 °F 27.0 °F 75% 29.95 in 10.0 mi ENE 15.0 mph 27.6 mph N/A   Overcast
8:29 AM 33.8 °F 25.3 °F 28.4 °F 81% 29.92 in 9.0 mi ENE 11.5 mph 23.0 mph 0.00 in   Overcast
8:54 AM 34.0 °F 23.8 °F 28.0 °F 79% 29.93 in 5.0 mi ENE 16.1 mph 26.5 mph 0.00 in Snow Light Snow
9:34 AM 33.8 °F 24.8 °F 30.2 °F 87% 29.91 in 8.0 mi East 12.7 mph 21.9 mph 0.00 in Snow Light Snow
9:54 AM 34.0 °F 26.6 °F 30.0 °F 85% 29.92 in 10.0 mi East 9.2 mph 19.6 mph 0.00 in   Overcast
10:54 AM 34.0 °F 26.0 °F 30.9 °F 89% 29.91 in 10.0 mi East 10.4 mph 23.0 mph 0.00 in   Overcast
11:54 AM 35.1 °F 26.4 °F 30.9 °F 85% 29.88 in 9.0 mi East 12.7 mph 24.2 mph 0.00 in Snow Light Snow
12:14 PM 33.8 °F 25.3 °F 30.2 °F 87% 29.86 in 4.0 mi East 11.5 mph 18.4 mph 0.00 in Snow Light Snow
12:54 PM 34.0 °F 25.5 °F 30.9 °F 89% 29.86 in 5.0 mi East 11.5 mph 19.6 mph 0.00 in Snow Light Snow
1:14 PM 33.8 °F 24.8 °F 30.2 °F 87% 29.84 in 2.5 mi East 12.7 mph 19.6 mph 0.00 in Snow Light Snow
1:29 PM 33.8 °F 25.3 °F 30.2 °F 87% 29.84 in 4.0 mi East 11.5 mph 21.9 mph 0.00 in Snow Light Snow
1:54 PM 34.0 °F 24.6 °F 30.9 °F 89% 29.84 in 3.0 mi ENE 13.8 mph 20.7 mph 0.00 in Snow Light Snow
2:08 PM 33.8 °F 25.3 °F 30.2 °F 87% 29.82 in 2.0 mi ENE 11.5 mph 19.6 mph 0.00 in Snow Light Snow
2:54 PM 34.0 °F 25.5 °F 30.9 °F 89% 29.82 in 2.0 mi ENE 11.5 mph 18.4 mph 0.00 in Snow Light Snow
3:02 PM 33.8 °F 25.3 °F 30.2 °F 87% 29.81 in 1.8 mi ENE 11.5 mph 18.4 mph 0.00 in Snow Light Snow
3:10 PM 33.8 °F 24.3 °F 30.2 °F 87% 29.80 in 1.5 mi ENE 13.8 mph 20.7 mph 0.00 in Snow Light Snow
3:54 PM 34.0 °F 25.0 °F 30.9 °F 89% 29.80 in 1.2 mi ENE 12.7 mph 21.9 mph 0.01 in Snow Light Snow
4:54 PM 34.0 °F 26.0 °F 30.9 °F 89% 29.78 in 1.8 mi ENE 10.4 mph 19.6 mph 0.01 in Snow Light Snow
4:56 PM 33.8 °F 24.8 °F 30.2 °F 87% 29.77 in 2.0 mi ENE 12.7 mph 19.6 mph 0.00 in Snow Light Snow
5:14 PM 33.8 °F 26.4 °F 30.2 °F 87% 29.76 in 3.0 mi ENE 9.2 mph 18.4 mph 0.00 in Snow Light Snow
5:36 PM 33.8 °F 25.3 °F 30.2 °F 87% 29.75 in 2.5 mi ENE 11.5 mph - 0.01 in Snow Light Snow
5:54 PM 34.0 °F 26.0 °F 30.9 °F 89% 29.75 in 2.0 mi ENE 10.4 mph - 0.01 in Snow Light Snow
6:05 PM 33.8 °F 25.3 °F 30.2 °F 87% 29.74 in 4.0 mi ENE 11.5 mph 18.4 mph 0.00 in Snow Light Snow
6:26 PM 33.8 °F 25.3 °F 30.2 °F 87% 29.74 in 1.8 mi ENE 11.5 mph 20.7 mph 0.00 in Snow Light Snow
6:54 PM 33.1 °F 25.5 °F 30.9 °F 92% 29.74 in 1.2 mi East 9.2 mph - 0.01 in Snow Light Snow
7:18 PM 33.8 °F 27.7 °F 32.0 °F 93% 29.73 in 1.0 mi East 6.9 mph - 0.02 in Snow Light Snow
7:54 PM 32.0 °F 26.4 °F 32.0 °F 100% 29.73 in 1.0 mi ESE 5.8 mph - 0.05 in Snow Light Snow
8:46 PM 32.0 °F 26.4 °F 32.0 °F 100% 29.70 in 0.8 mi ESE 5.8 mph - 0.05 in Snow Light Snow
8:54 PM 32.0 °F 25.6 °F 32.0 °F 100% 29.70 in 0.8 mi ESE 6.9 mph - 0.06 in Snow Light Snow
8:58 PM 32.0 °F 24.2 °F 32.0 °F 100% 29.69 in 1.0 mi ESE 9.2 mph - 0.00 in Snow Light Snow
9:24 PM 32.0 °F 23.0 °F 32.0 °F 100% 29.68 in 2.0 mi SE 11.5 mph 18.4 mph 0.01 in Snow Light Snow
9:44 PM 33.8 °F 24.8 °F 32.0 °F 93% 29.67 in 2.5 mi SSE 12.7 mph - 0.01 in Snow Light Snow
9:54 PM 33.1 °F - 32.0 °F 96% 29.68 in 2.5 mi Calm Calm - 0.01 in Snow Light Snow
10:45 PM 33.8 °F 29.6 °F 30.2 °F 87% 29.66 in 3.0 mi West 4.6 mph - 0.01 in Snow Light Snow
10:54 PM 33.1 °F 27.7 °F 30.9 °F 92% 29.67 in 2.5 mi NW 5.8 mph - 0.01 in Snow Light Snow
11:11 PM 33.8 °F 29.6 °F 32.0 °F 93% 29.65 in 2.0 mi NW 4.6 mph - 0.00 in Snow Light Snow
11:33 PM 33.8 °F - 30.2 °F 87% 29.66 in 1.8 mi Calm Calm - 0.01 in Snow Light Snow
11:38 PM 33.8 °F 29.6 °F 30.2 °F 87% 29.66 in 2.0 mi NW 4.6 mph - 0.01 in Snow Light Snow
11:54 PM 33.1 °F - 32.0 °F 96% 29.67 in 2.0 mi Calm Calm - 0.01 in Snow Light Snow